Location: Sternwarte_Laufen
(47.9344°N, 12.9346°E)
Time: 21:14:30
(UTC+01:00)

ISS - Pass Details

Date: 16 January 2018
Orbit: 402 x 407 km, 51.6° (Epoch: 17 January)

Event Time Altitude Azimuth Distance (km) Brightness Sun altitude
Exits shadow 06:09:35 12° 210° (SSW) 1,368 -1.3 -16.7°
Drops below altitude 10° 06:10:14 10° 200° (SSW) 1,459 -1.1 -16.6°
Sets 06:13:16 0° 168° (SSE) 2,314 0.4 -16.1°
